Tracking 28794 objects as of 19-Apr-2024
HD Live streaming from Space Station
objects crossing your sky now

FENGYUN 1C DEB

Track FENGYUN 1C DEB now!
10-day predictions


NORAD ID: 31715
Int'l Code: 1999-025CDN
Perigee: 606.8 km
Apogee: 919.3 km
Inclination: 99.2 °
Period: 99.9 minutes
Semi major axis: 7134 km
RCS: 0.0108 m2 (small)
Launch date: May 10, 1999
Source: People's Republic of China (PRC)
Launch site: Taiyaun Space Center, China (TSC)

Note: This is SATELLITE DEBRIS
Your satellite tracking list
Your tracking list is empty




NASA's NSSDC Master Catalog

Two Line Element Set (TLE):
1 31715U 99025CDN 24110.58179322  .00017390  00000-0  40890-2 0  9990
2 31715  99.2457 235.5381 0219061 102.8695 259.7059 14.40787758530086
Source of the keplerian elements: AFSPC